User: anonymous   Login
Location: Sabalos
(43.2860°N, 0.1414°E)
Time: 18:22:42
(UTC+00:00)
Language:

SL-16 R/B - Orbit

View from above orbital plane
View from above orbital plane
View from above satellite
View from above satellite

Ground track
Ground track

The orbit data is extracted from the following two-line orbital elements,

1 28353U 04021B   20262.92519920 -.00000268 +00000-0 -11561-3 0  9992
2 28353 070.9982 103.2895 0006025 217.2226 142.8479 14.14238983840359
Epoch (UTC): 18 September 2020 22:12:17
Eccentricity: 0.0006025
inclination: 70.9982°
perigee height: 840 km
apogee height: 849 km
right ascension of ascending node: 103.2895°
argument of perigee: 217.2226°
revolutions per day: 14.14238983
mean anomaly at epoch: 142.8479°
orbit number at epoch: 84035

The dashed part of the orbit path shows where the satellite is in the earth's shadow,  

DLR